Vorticity
6 6 5 5 4 2 6 0 2 4 5 0 -1 1 2 -1 -0 2 5 8 14 11 2 5 3 3 1 2 2 2 0 2 3 6 2 7 5 5 7 4 2 4 3 7 5 9 7 6 2
10 9 6 8 5 2 2 4 5 5 4 3 7 5 0 -1 -2 0 -1 1 9 14 13 4 5 2 2 1 2 4 1 1 3 7 4 3 7 7 6 3 2 2 3 3 5 8 8 5 3
7 6 9 7 6 3 5 3 5 3 6 7 3 1 -0 5 4 4 5 3 3 7 18 5 6 2 2 2 -0 2 3 1 2 4 7 3 4 6 5 3 3 2 3 3 7 6 9 6 3
12 10 6 10 9 8 6 3 4 7 3 6 9 3 11 -2 -2 3 5 5 5 2 5 22 6 4 2 3 1 -0 2 1 2 3 7 3 2 5 5 3 3 3 3 4 5 5 6 7 3
11 3 14 7 6 7 4 6 -1 0 3 6 4 7 -2 8 9 1 -1 -0 0 4 6 5 25 3 7 1 2 1 2 1 1 2 4 7 3 2 5 4 4 3 3 5 4 7 3 7 5
9 14 8 9 9 9 7 0 2 4 3 3 4 4 2 2 -3 5 1 6 2 -2 0 -1 7 17 3 9 3 2 2 3 2 2 4 5 6 4 5 6 4 2 4 4 5 5 3 7 6
6 4 6 13 13 6 -1 10 5 3 5 8 5 4 3 3 2 1 4 3 6 4 -1 1 4 10 8 1 5 2 2 3 1 2 3 3 7 3 2 6 3 4 5 4 5 5 4 5 6
21 24 19 16 14 11 15 7 14 7 5 6 6 3 4 2 2 -0 1 -1 7 6 11 -2 -2 3 19 6 0 5 3 4 3 2 2 2 4 9 4 2 5 3 7 5 5 5 4 4 6
6 13 15 14 13 9 8 11 10 13 13 7 5 6 -0 3 3 1 -1 3 9 4 12 4 5 1 5 18 6 2 4 2 4 3 2 2 4 5 7 6 4 3 5 5 6 5 4 4 5
6 13 14 14 16 10 10 8 0 8 8 6 6 3 3 5 -2 1 12 7 -10 5 4 12 5 -2 -3 10 13 2 2 4 2 4 2 1 3 5 5 8 6 4 6 5 6 5 5 4 4
24 22 26 37 42 38 30 26 17 10 2 7 4 4 0 7 10 3 -4 13 18 -2 33 -5 26 0 4 5 11 7 2 3 5 1 -0 2 3 6 4 8 7 6 5 4 5 5 5 4 5
24 18 21 19 25 33 36 37 38 34 32 19 7 10 4 -1 4 5 4 13 -4 -5 7 1 -30 20 2 1 8 6 6 2 5 2 3 3 3 5 6 5 9 6 5 4 6 5 4 4 4
24 15 7 3 -1 6 16 14 24 40 44 36 39 13 16 9 11 6 1 0 3 2 7 8 2 2 -1 -1 10 5 4 5 2 4 2 2 3 6 6 6 7 6 5 4 4 5 4 5 4
9 12 17 24 23 17 16 11 22 11 13 45 73 50 57 18 17 7 6 1 3 1 3 47 14 14 10 8 3 11 5 2 5 3 1 3 5 5 5 6 6 6 5 5 5 5 5 5 5
11 18 19 8 13 -2 6 7 15 6 5 8 10 17 61 55 24 11 16 10 14 -8 -20 32 -15 -10 -4 5 6 7 5 3 4 4 2 4 6 5 5 6 5 5 5 6 5 5 5 4 5
8 7 0 25 20 -1 13 -5 8 15 13 5 -11 21 -0 21 62 33 14 15 27 80 -0 -16 17 76 7 11 4 10 5 3 1 7 3 -1 5 6 5 6 5 4 5 5 6 5 5 5 5
-1 -10 11 6 13 9 6 14 7 5 14 20 24 3 15 26 74 41 -2 11 -27 -21 -12 -22 2 34 0 1 12 6 7 7 2 1 7 3 4 5 5 6 5 4 4 4 5 5 4 4 5
2 5 -8 -4 -4 -3 -1 10 8 10 25 14 -3 13 23 34 57 40 -15 10 -6 -1 26 -10 5 29 12 -16 30 1 9 13 5 5 0 6 5 4 5 5 5 4 5 5 4 4 4 5 6
-2 7 5 -4 1 3 1 12 14 5 28 19 1 34 32 35 54 -10 33 20 -46 -21 4 33 61 -5 -25 8 8 8 -5 2 11 -3 1 1 2 2 5 4 4 5 5 5 4 4 4 5 6
10 3 9 2 -3 7 6 8 8 26 14 14 22 -15 19 41 39 -1 17 -5 24 13 26 11 -66 -10 -4 24 9 -3 19 43 7 31 14 5 2 3 4 4 5 5 5 4 4 3 4 5 10
14 14 10 5 -0 4 8 1 16 24 18 45 -4 22 13 38 14 39 -0 14 -20 4 21 -39 17 33 11 -11 27 5 2 29 36 24 24 2 2 4 3 4 5 4 4 4 4 3 4 5 -3
30 15 12 11 9 12 10 5 26 18 10 17 -10 17 8 12 2 32 46 20 -7 7 17 39 1 13 18 -7 22 12 2 -17 -11 -1 -13 13 6 4 3 4 5 4 4 4 3 7 3 3 7
24 24 22 16 15 15 7 15 27 4 -2 27 -5 23 16 21 8 -46 -40 52 20 17 26 43 18 14 15 4 27 14 8 22 24 17 26 -11 -0 5 5 3 5 8 5 8 6 7 7 19 -4
34 34 21 17 16 9 2 15 3 0 26 14 17 3 6 8 12 -0 41 5 3 -12 -10 1 32 26 15 16 -7 34 -5 14 57 19 -11 8 1 1 6 8 4 5 4 4 4 3 -3 5 8
28 26 27 24 19 10 2 10 12 4 17 14 7 17 9 3 22 9 27 -4 -9 19 6 19 2 22 28 17 43 -64 39 32 18 28 38 -1 12 5 4 4 8 5 7 4 4 2 9 4 1
25 2 18 28 -11 18 5 13 6 12 -10 11 -8 23 -4 -0 26 8 17 7 4 2 23 -8 41 14 19 22 25 5 15 -29 9 5 14 28 83 38 17 3 2 9 3 13 5 -1 11 -7 -4
-10 13 27 10 18 11 9 6 24 6 19 -7 10 7 21 -39 17 7 36 15 31 15 16 9 38 6 11 -11 -42 46 20 12 57 -0 22 18 -5 12 11 6 30 8 11 -4 -4 -4 -13 13 -13
-0 10 24 3 15 26 6 14 6 1 9 7 2 -0 5 21 -5 -21 -2 1 6 14 20 17 11 16 21 -7 6 24 -6 -53 40 -7 13 -14 -4 6 14 20 10 -3 -0 1 18 16 1 2 17
-10 2 -3 1 -7 4 19 27 11 11 4 16 16 2 39 8 16 17 12 -1 -3 -9 -3 2 5 15 35 20 10 27 32 18 20 39 20 26 14 4 -9 4 -17 -7 15 6 31 6 10 29 28
30 13 9 13 14 10 10 1 30 17 8 1 9 0 12 9 5 3 8 10 6 15 13 2 -7 12 5 19 45 24 18 2 33 -1 28 24 24 27 30 28 35 33 29 18 23 2 3 30 -0
Height
5780 5782 5786 5788 5793 5788 5794 5799 5803 5809 5814 5818 5820 5824 5829 5829 5831 5837 5841 5843 5845 5848 5852 5855 5858 5860 5864 5867 5869 5872 5874 5876 5878 5879 5880 5880 5881 5882 5884 5884 5885 5885 5886 5886 5886 5886 5886 5886 5885
5769 5771 5775 5776 5779 5781 5788 5792 5795 5798 5804 5810 5814 5816 5821 5825 5827 5831 5836 5838 5841 5843 5847 5850 5854 5857 5860 5864 5866 5870 5871 5873 5875 5877 5878 5878 5879 5881 5883 5883 5884 5884 5885 5886 5887 5886 5887 5887 5887
5759 5761 5764 5765 5769 5774 5782 5780 5783 5785 5794 5798 5804 5809 5812 5821 5818 5822 5829 5831 5834 5838 5841 5845 5849 5853 5856 5860 5863 5866 5869 5870 5872 5874 5876 5876 5877 5879 5880 5882 5883 5883 5884 5885 5886 5886 5887 5887 5887
5747 5749 5752 5754 5763 5773 5771 5767 5771 5776 5782 5784 5792 5798 5804 5807 5814 5817 5824 5824 5827 5832 5834 5839 5844 5847 5852 5855 5859 5863 5866 5868 5869 5872 5873 5874 5875 5877 5878 5880 5882 5882 5883 5884 5885 5886 5886 5886 5886
5736 5738 5739 5745 5755 5760 5758 5757 5753 5757 5764 5772 5777 5785 5793 5794 5803 5808 5811 5817 5819 5825 5829 5832 5838 5841 5846 5850 5854 5858 5862 5865 5866 5868 5870 5872 5872 5875 5877 5878 5880 5881 5881 5882 5883 5884 5884 5885 5885
5723 5725 5730 5736 5744 5743 5746 5740 5740 5744 5750 5759 5765 5772 5780 5782 5790 5797 5801 5807 5811 5815 5821 5825 5830 5836 5840 5845 5849 5852 5857 5861 5863 5865 5867 5868 5870 5873 5874 5876 5877 5879 5880 5880 5881 5882 5883 5883 5884
5711 5713 5719 5722 5729 5729 5732 5725 5728 5733 5738 5747 5752 5760 5771 5769 5780 5787 5791 5798 5803 5806 5811 5818 5823 5828 5833 5838 5844 5848 5852 5855 5859 5861 5863 5865 5868 5871 5872 5873 5875 5876 5878 5879 5879 5880 5881 5882 5882
5702 5703 5705 5706 5711 5721 5710 5709 5714 5715 5725 5731 5734 5749 5761 5756 5767 5774 5780 5789 5795 5798 5804 5809 5814 5821 5825 5830 5837 5842 5847 5850 5854 5857 5860 5863 5866 5868 5870 5871 5872 5874 5875 5876 5877 5878 5880 5880 5881
5689 5692 5689 5692 5694 5698 5695 5698 5701 5703 5709 5714 5720 5732 5744 5743 5752 5762 5767 5778 5784 5787 5794 5802 5808 5811 5818 5823 5829 5835 5840 5845 5848 5852 5855 5859 5862 5865 5867 5868 5869 5871 5872 5874 5874 5876 5877 5878 5879
5676 5674 5674 5674 5679 5678 5680 5681 5684 5686 5693 5704 5709 5719 5731 5732 5739 5749 5755 5764 5772 5776 5783 5789 5797 5804 5811 5815 5820 5827 5833 5838 5843 5846 5851 5854 5857 5860 5862 5864 5866 5867 5869 5870 5872 5873 5874 5875 5875
5662 5660 5659 5656 5658 5659 5662 5659 5663 5665 5677 5679 5689 5701 5712 5714 5724 5735 5742 5750 5760 5768 5747 5774 5784 5792 5800 5807 5812 5818 5825 5831 5836 5840 5845 5848 5851 5855 5858 5860 5862 5863 5864 5866 5868 5869 5871 5871 5872
5654 5649 5650 5647 5646 5645 5643 5641 5643 5646 5654 5652 5668 5676 5686 5693 5708 5720 5728 5736 5747 5755 5737 5754 5770 5781 5789 5797 5803 5810 5817 5824 5829 5834 5838 5843 5847 5850 5853 5854 5857 5859 5860 5861 5863 5865 5866 5867 5868
5648 5647 5646 5643 5641 5641 5637 5634 5632 5635 5632 5634 5644 5648 5665 5669 5686 5701 5714 5726 5732 5740 5748 5754 5762 5770 5777 5787 5795 5803 5809 5815 5821 5826 5832 5837 5841 5845 5847 5849 5852 5854 5855 5857 5858 5860 5862 5863 5865
5644 5644 5643 5641 5638 5635 5634 5632 5628 5628 5626 5627 5626 5629 5645 5649 5666 5684 5696 5710 5717 5732 5745 5744 5750 5759 5768 5778 5785 5795 5802 5808 5813 5818 5825 5831 5835 5838 5841 5844 5847 5849 5850 5852 5853 5855 5857 5859 5860
5644 5643 5641 5638 5634 5631 5630 5628 5628 5625 5624 5624 5621 5621 5627 5635 5646 5663 5683 5696 5709 5723 5734 5740 5747 5753 5763 5770 5778 5785 5793 5800 5806 5811 5818 5823 5829 5832 5835 5838 5842 5844 5845 5847 5849 5851 5852 5854 5855
5642 5641 5639 5637 5634 5631 5629 5627 5624 5620 5616 5615 5618 5618 5622 5624 5634 5650 5665 5683 5703 5718 5723 5735 5738 5743 5751 5762 5769 5778 5783 5793 5799 5804 5811 5817 5821 5825 5828 5832 5836 5837 5840 5843 5844 5846 5847 5849 5850
5639 5639 5637 5635 5632 5629 5627 5625 5620 5615 5613 5611 5611 5612 5613 5614 5616 5635 5656 5673 5695 5706 5714 5724 5728 5734 5744 5753 5760 5770 5776 5784 5790 5799 5805 5810 5814 5818 5822 5825 5828 5831 5835 5837 5839 5840 5842 5843 5844
5636 5635 5634 5633 5631 5628 5626 5623 5616 5612 5610 5609 5608 5609 5608 5607 5613 5630 5649 5667 5687 5698 5711 5721 5721 5729 5736 5745 5751 5760 5767 5774 5781 5791 5799 5803 5807 5811 5815 5818 5821 5825 5829 5831 5833 5834 5836 5838 5838
5630 5629 5630 5630 5629 5628 5625 5620 5616 5612 5609 5608 5607 5606 5608 5612 5618 5630 5644 5660 5678 5696 5702 5705 5714 5714 5727 5733 5743 5751 5758 5765 5772 5784 5790 5795 5799 5804 5809 5811 5815 5819 5822 5824 5826 5828 5829 5830 5832
5623 5622 5623 5625 5626 5626 5622 5619 5615 5611 5608 5610 5610 5611 5613 5619 5630 5639 5649 5662 5683 5689 5697 5704 5707 5710 5720 5728 5737 5747 5755 5754 5766 5775 5781 5786 5791 5796 5801 5805 5808 5812 5814 5817 5820 5820 5821 5822 5825
5615 5613 5615 5619 5621 5622 5621 5619 5615 5611 5610 5611 5614 5616 5620 5623 5630 5642 5653 5662 5673 5684 5693 5696 5700 5704 5714 5721 5728 5738 5745 5748 5753 5761 5768 5776 5782 5786 5792 5798 5800 5803 5806 5809 5811 5812 5813 5815 5818
5607 5603 5606 5611 5616 5619 5619 5619 5615 5615 5615 5616 5616 5619 5624 5629 5637 5647 5654 5665 5675 5682 5684 5692 5696 5701 5709 5716 5725 5732 5737 5744 5751 5758 5761 5767 5774 5778 5784 5789 5792 5795 5798 5800 5802 5804 5806 5808 5810
5595 5595 5600 5604 5610 5614 5616 5618 5616 5615 5617 5617 5620 5624 5628 5634 5637 5643 5651 5662 5671 5680 5681 5685 5690 5697 5703 5709 5717 5723 5730 5736 5739 5744 5746 5756 5762 5769 5774 5779 5783 5785 5789 5792 5795 5796 5797 5799 5800
5585 5588 5593 5600 5606 5611 5613 5616 5616 5614 5615 5616 5622 5625 5628 5635 5639 5646 5653 5662 5669 5671 5674 5678 5681 5690 5696 5701 5710 5715 5719 5725 5728 5734 5739 5747 5752 5758 5763 5768 5772 5775 5780 5783 5785 5786 5786 5789 5791
5583 5587 5592 5598 5604 5609 5611 5614 5614 5616 5617 5619 5623 5625 5632 5637 5642 5650 5657 5657 5664 5669 5671 5673 5678 5683 5691 5697 5700 5706 5714 5721 5724 5727 5732 5738 5742 5745 5751 5755 5761 5766 5770 5773 5773 5774 5776 5775 5777
5589 5593 5595 5599 5604 5608 5610 5612 5614 5617 5619 5620 5624 5629 5636 5639 5643 5648 5650 5655 5661 5663 5669 5671 5674 5679 5682 5690 5697 5702 5709 5716 5720 5722 5725 5729 5733 5737 5740 5744 5750 5756 5759 5758 5760 5762 5764 5767 5772
5597 5599 5601 5602 5606 5610 5613 5616 5617 5617 5618 5622 5625 5631 5633 5632 5639 5642 5647 5653 5658 5662 5662 5666 5670 5676 5680 5686 5693 5697 5702 5709 5712 5717 5719 5723 5727 5731 5733 5738 5742 5742 5749 5750 5751 5757 5759 5760 5763
5605 5607 5607 5608 5611 5612 5615 5617 5618 5619 5620 5625 5627 5630 5631 5634 5636 5639 5645 5649 5655 5659 5662 5665 5668 5673 5678 5681 5687 5691 5698 5702 5708 5712 5716 5720 5725 5728 5731 5736 5739 5740 5741 5742 5746 5750 5751 5752 5752
5613 5613 5613 5616 5617 5617 5618 5619 5620 5622 5621 5623 5625 5628 5631 5633 5637 5640 5644 5649 5652 5658 5663 5666 5669 5672 5676 5677 5681 5686 5692 5696 5701 5707 5711 5714 5718 5720 5724 5727 5728 5731 5734 5736 5739 5742 5743 5742 5743
5620 5618 5618 5620 5621 5621 5622 5623 5622 5623 5622 5622 5624 5625 5630 5633 5637 5640 5644 5648 5652 5656 5661 5665 5667 5672 5674 5676 5677 5683 5688 5693 5699 5703 5706 5710 5712 5714 5717 5718 5721 5723 5725 5727 5730 5732 5734 5737 5734